Weather Roundup
Issued by NWS

Home | Current Version | Previous Version | Graphics & Text | Print | Product List | Glossary Off
Versions: 1 2 3 4 5 6 7 8 9 10 11 12 13 14 15 16 17 18 19 20 21 22 23 24 25 26 27 28 29 30 31 32 33 34 35 36 37 38 39 40 41 42 43 44 45 46 47 48 49 50

000
NZUS93 KARX 301010
HRRWXR

CURRENT HOURLY OBSERVATIONS ACROSS
MUCH OF THE UPPER MISSISSIPPI VALLEY
NATIONAL WEATHER SERVICE LA CROSSE WI
500 AM CDT MON MAY 30 2016


...SOUTHEAST MINNESOTA...


CITY           SKY/WX    TMP DP  RH WIND       PRES   REMARKS
ROCHESTER      CLEAR     56  54  93 S5        30.04R
ROCHESTER/MAYO FAIR      58  57  97 CALM      30.02S
WINONA         CLEAR     55  55 100 NW3       30.01S
AUSTIN         CLOUDY    54  52  94 CALM      30.01F
ALBERT LEA     CLOUDY    55  54  94 CALM      30.01F
DODGE CENTER   PTCLDY    54  52  94 CALM      30.02S
PRESTON        CLEAR     60  53  77 W5        30.03R
OWATONNA       CLOUDY    55  54  94 CALM      30.01S FOG
FARIBAULT        N/A     54  54 100 CALM      30.01S VSB 1/2
$$

...ELSEWHERE IN MINNESOTA...


CITY           SKY/WX    TMP DP  RH WIND       PRES   REMARKS
MINNEAPOLIS    PTCLDY    61  57  87 CALM      30.00R
INTNL FALLS    CLEAR     45  44  97 CALM      29.91S
DULUTH         CLEAR     51  48  89 W6        29.95S
RED WING       CLEAR     54  52  94 CALM      30.00R FOG
REDWOOD FALLS  CLOUDY    57  50  77 CALM      29.98F
MANKATO        CLOUDY    57  52  82 SE6       30.00F
WORTHINGTON    LGT RAIN  62  51  67 SW7       30.06R
FAIRMONT       MOCLDY    55  52  88 CALM      30.00R
$$

...SOUTHWEST WISCONSIN...


CITY           SKY/WX    TMP DP  RH WIND       PRES   REMARKS
LA CROSSE      CLEAR     58  57  97 S3        30.00R
PRAIRIE DU CHI CLEAR     57  55  92 CALM      30.01S
BOSCOBEL       FOG       58  57  97 S3        30.01S VSB 1/4
LONE ROCK      FOG       57  56  96 CALM      30.01R VSB 1/4
PLATTEVILLE    CLEAR     62  59  89 CALM      30.01S
FORT MC COY    CLEAR     51  51 100 CALM      30.02R
CAMP DOUGLAS   CLEAR     52  52 100 CALM      29.99S FOG
MAUSTON-NEW LI SUNNY     61  57  88 W3        29.99R
VIROQUA        FAIR      59  57  93 NW3       30.02R
WIS DELLS      CLEAR     57  55  91 CALM      30.00R
$$

...ELSEWHERE IN WISCONSIN...


CITY           SKY/WX    TMP DP  RH WIND       PRES   REMARKS
MILWAUKEE      CLEAR     65  57  75 W3        29.99R
MADISON        FOG       57  57 100 CALM      30.00R VSB 1/4
GREEN BAY      CLEAR     58  56  93 W5        29.96S
EAU CLAIRE     CLEAR     54  53  97 CALM      29.98S
BLACK RVR FLS  FAIR      49  49 100 CALM      30.00R
MEDFORD        CLEAR     53  53 100 W5        30.00R
WAUSAU         CLOUDY    57  55  93 CALM      29.97R
WIS RAPIDS     CLEAR     56  54  93 CALM      30.00R
MARSHFIELD     CLEAR     58  55  90 W7        29.99R
RICE LAKE      PTCLDY    53  52  95 CALM      30.01S
$$

...NORTHEAST IOWA...


CITY           SKY/WX    TMP DP  RH WIND       PRES   REMARKS
WATERLOO       PTCLDY    56  55  97 CALM      30.01R
DUBUQUE        CLEAR     60  57  89 CALM      30.02R
DECORAH        CLEAR     59  59 100 CALM      30.01S
MASON CITY     CLOUDY    53  51  93 CALM      30.03S
CHARLES CITY   PTCLDY    59  54  82 CALM      30.02S
OELWEIN        CLOUDY    57  57 100 CALM      30.03S
$$

...ELSEWHERE IN IOWA...


CITY           SKY/WX    TMP DP  RH WIND       PRES   REMARKS
DES MOINES     CLOUDY    66  58  75 W5        29.99S
IOWA CITY      CLOUDY    64  59  83 CALM      30.02S
FORT DODGE     CLOUDY    61  52  72 CALM      30.02R
MARSHALLTOWN   CLOUDY    62  61  96 CALM      30.00S
CEDAR RAPIDS   CLOUDY    60  59  96 CALM      30.00S
$$

...NORTHERN ILLINOIS...


CITY           SKY/WX    TMP DP  RH WIND       PRES   REMARKS
CHICAGO-OHARE  PTCLDY    64  57  78 W5        30.00S
CHICAGO-MIDWAY MOCLDY    67  57  70 W5        30.00S
MOLINE         CLOUDY    65  59  81 NW7       30.01R
ROCKFORD       PTCLDY    62  59  90 CALM      30.03S
PEORIA         CLOUDY    62  58  86 CALM      30.03S
$$

NOTE: "FAIR" INDICATES FEW OR NO CLOUDS BELOW 12,000 FEET WITH NO
SIGNIFICANT WEATHER AND/OR OBSTRUCTIONS TO VISIBILITY. WIND
SPEEDS ARE IN MILES-PER-HOUR.




USA.gov is the U.S. government's official web portal to all federal, state and local government web resources and services.